Showing default

OPS 4467 A, 812

Orbit data source: Space-Track

OPS 4467 A, 812 is an American payload satellite in SSO that was launched on Thu, 18 Jun 1964 UTC via a THOR SLV-2 AGENA D launch vehicle from the Air Force Western Test Range (AFWTR). Payload-class satellites include a variety of spacecraft equipped with specific instruments for various scientific and technological missions. These include communications satellites like Starlink; space stations such as the ISS; scientific satellites like the Hubble; Earth observation satellites from companies like Planet Labs, Umbra, and HawkEye 360; GPS; miniature CubeSats for education and research; and military/defense satellites.

Loading next visibility...
Identifier
812, 1964-031A
Orbit
SSO
Country
Flag of USUS
Related business
Manufacturer
RCA/East Windsor
Mission
Spacecraft
Bus & Motor
P35, Unknown motor
Mass
50 kg wet, 50 kg dry
Launch date (UTC)
1964-06-18 (62 years ago)
Launch vehicle
THOR SLV-2 AGENA D
Launch site
Air Force Western Test Range (AFWTR)
Object type
Payload
Rocket body
Debris
Shape & HBR
Unknown
Radar Cross Section
Medium (>0.1 m² and <1 m²)

Expand to show TLE details & history
Last TLE update: 9 hours ago

TLE from 9 hours ago
0 OPS 4467 A
1 00812U 64031A   26046.25205622  .00000122  00000-0  75848-4 0  9998
2 00812  99.7993 187.4265 0006277  72.4125 287.7736 14.24565093198934
Epoch: 2026-02-15T06:02Z
TLE epoch observation values (Epoch: 2026-02-15T06:02:57.657Z)
Latitude
0.00002°
Longitude
-48.57717°
Altitude
811.464 km
Speed
7.448 km/s
True Right ascension
12h 29m 42s
True Declination
0° 00' 00"
Sunlit
Object was in full shadow at epoch
Visualization orbit readout
Latitude
Unknown
Longitude
Unknown
Altitude
Unknown
Speed
Unknown
Apparent Right ascension
Unknown
Apparent Declination
Unknown
Sunlit
N/A
Visualization observer readout
Local Sidereal Time
17:31:54
Azimuth
Unknown
Elevation
Unknown
Doppler factor
Unknown
Orbital elements
Apogee altitude
811.673 km
Perigee altitude
802.653 km
Semi-major axis
7,185.3 km
Eccentricity
0.00063
Inclination
99.7993°
RAAN
187.4265°
Arg. of periapsis
72.4125°
True anomaly
287.70509°
Mean anomaly
287.7736°
Eccentric anomaly
287.73935°
Mean motion
3.56349 °/min
Orbital period
101.02 mins
BSTAR
0.000075848
Loading maneuver chart data...
Computing Atmospheric mass density...
Loading historical data...
Loading historical data...
Loading historical data...
Loading historical data...
Loading historical data...
Loading historical data...
Loading historical data...
Other satellites on launch #31 in the year 1964 (1964-06-18 UTC)

Documentation

Showing up to 5 results
|